Time,TemperatureF,DewpointF,PressureIn,WindDirection,WindDirectionDegrees,WindSpeedMPH,WindSpeedGustMPH,Humidity,HourlyPrecipIn,Conditions,Clouds,dailyrainin,SoftwareType,DateUTC
2013-05-12 00:13:00,52.0,51.0,30.10,SSE,162,1.0,10.0,95,0.00,,,0.00,weatherlink.com 1.10,2013-05-12 07:13:00,
2013-05-12 00:28:00,51.7,50.0,30.10,SE,127,2.0,6.0,95,0.00,,,0.00,weatherlink.com 1.10,2013-05-12 07:28:00,
2013-05-12 00:43:00,51.8,51.0,30.11,South,187,2.0,11.0,95,0.00,,,0.00,weatherlink.com 1.10,2013-05-12 07:43:00,
2013-05-12 00:58:00,51.9,51.0,30.11,SSW,195,4.0,7.0,95,0.00,,,0.00,weatherlink.com 1.10,2013-05-12 07:58:00,
2013-05-12 01:13:00,52.0,50.0,30.11,SE,136,4.0,8.0,94,0.00,,,0.00,weatherlink.com 1.10,2013-05-12 08:13:00,
2013-05-12 01:28:00,52.0,50.0,30.10,SE,136,2.0,7.0,94,0.00,,,0.00,weatherlink.com 1.10,2013-05-12 08:28:00,
2013-05-12 01:43:00,51.9,50.0,30.10,South,181,2.0,6.0,94,0.00,,,0.00,weatherlink.com 1.10,2013-05-12 08:43:00,
2013-05-12 01:58:00,51.9,50.0,30.10,West,260,2.0,8.0,94,0.00,,,0.00,weatherlink.com 1.10,2013-05-12 08:58:00,
2013-05-12 02:13:00,52.2,51.0,30.09,ESE,103,5.0,12.0,95,0.00,,,0.00,weatherlink.com 1.10,2013-05-12 09:13:00,
2013-05-12 02:28:00,52.3,51.0,30.09,SW,225,2.0,13.0,94,0.00,,,0.00,weatherlink.com 1.10,2013-05-12 09:28:00,
2013-05-12 02:43:00,52.5,51.0,30.09,South,172,4.0,10.0,94,0.00,,,0.00,weatherlink.com 1.10,2013-05-12 09:43:00,
2013-05-12 02:58:00,52.8,51.0,30.09,South,172,6.0,8.0,94,0.00,,,0.00,weatherlink.com 1.10,2013-05-12 09:58:00,
2013-05-12 03:13:00,52.8,51.0,30.09,South,174,4.0,10.0,94,0.00,,,0.00,weatherlink.com 1.10,2013-05-12 10:13:00,
2013-05-12 03:28:00,52.6,51.0,30.09,South,187,4.0,6.0,94,0.00,,,0.00,weatherlink.com 1.10,2013-05-12 10:28:00,
2013-05-12 03:43:00,52.4,51.0,30.09,SE,146,4.0,7.0,94,0.00,,,0.00,weatherlink.com 1.10,2013-05-12 10:43:00,
2013-05-12 03:58:00,52.5,51.0,30.09,SSE,162,3.0,7.0,94,0.00,,,0.00,weatherlink.com 1.10,2013-05-12 10:58:00,
2013-05-12 04:13:00,52.5,51.0,30.09,WSW,238,4.0,8.0,94,0.00,,,0.00,weatherlink.com 1.10,2013-05-12 11:13:00,
2013-05-12 04:28:00,52.6,51.0,30.09,SSE,148,5.0,6.0,94,0.00,,,0.00,weatherlink.com 1.10,2013-05-12 11:28:00,
2013-05-12 04:43:00,52.8,51.0,30.09,South,187,2.0,7.0,94,0.00,,,0.00,weatherlink.com 1.10,2013-05-12 11:43:00,
2013-05-12 04:58:00,52.8,51.0,30.09,South,170,0.0,5.0,94,0.00,,,0.00,weatherlink.com 1.10,2013-05-12 11:58:00,
2013-05-12 05:13:00,52.7,51.0,30.09,South,174,2.0,2.0,94,0.00,,,0.00,weatherlink.com 1.10,2013-05-12 12:13:00,
2013-05-12 05:28:00,52.7,51.0,30.09,SE,132,2.0,6.0,94,0.00,,,0.00,weatherlink.com 1.10,2013-05-12 12:28:00,
2013-05-12 05:43:00,52.6,51.0,30.10,SW,228,2.0,5.0,95,0.00,,,0.00,weatherlink.com 1.10,2013-05-12 12:43:00,
2013-05-12 05:58:00,52.8,52.0,30.10,SSE,147,6.0,7.0,95,0.00,,,0.00,weatherlink.com 1.10,2013-05-12 12:58:00,
2013-05-12 06:13:00,52.7,51.0,30.11,SSE,162,3.0,6.0,95,0.00,,,0.00,weatherlink.com 1.10,2013-05-12 13:13:00,
2013-05-12 06:28:00,53.0,52.0,30.11,ESE,111,1.0,7.0,95,0.00,,,0.00,weatherlink.com 1.10,2013-05-12 13:28:00,
2013-05-12 06:43:00,53.5,52.0,30.11,SSE,152,2.0,8.0,95,0.00,,,0.00,weatherlink.com 1.10,2013-05-12 13:43:00,
2013-05-12 06:58:00,53.8,52.0,30.11,South,190,2.0,6.0,95,0.00,,,0.00,weatherlink.com 1.10,2013-05-12 13:58:00,
2013-05-12 07:13:00,54.0,53.0,30.11,SW,215,3.0,8.0,95,0.00,,,0.00,weatherlink.com 1.10,2013-05-12 14:13:00,
2013-05-12 07:28:00,54.3,53.0,30.12,WSW,245,2.0,7.0,95,0.00,,,0.00,weatherlink.com 1.10,2013-05-12 14:28:00,
2013-05-12 07:43:00,54.5,53.0,30.12,SE,139,5.0,9.0,95,0.00,,,0.00,weatherlink.com 1.10,2013-05-12 14:43:00,
2013-05-12 07:59:00,54.7,53.0,30.12,SSE,165,3.0,8.0,94,0.00,,,0.00,weatherlink.com 1.10,2013-05-12 14:59:00,
2013-05-12 08:14:00,55.9,54.0,30.12,South,177,4.0,7.0,94,0.00,,,0.00,weatherlink.com 1.10,2013-05-12 15:14:00,
2013-05-12 08:29:00,57.4,55.0,30.13,South,184,3.0,8.0,92,0.00,,,0.00,weatherlink.com 1.10,2013-05-12 15:29:00,
2013-05-12 08:44:00,58.8,55.0,30.12,SSW,212,4.0,9.0,88,0.00,,,0.00,weatherlink.com 1.10,2013-05-12 15:44:00,
2013-05-12 08:59:00,58.9,55.0,30.12,SSW,205,3.0,8.0,88,0.00,,,0.00,weatherlink.com 1.10,2013-05-12 15:59:00,
2013-05-12 09:14:00,59.3,56.0,30.13,SW,217,7.0,8.0,87,0.00,,,0.00,weatherlink.com 1.10,2013-05-12 16:14:00,
2013-05-12 09:29:00,58.8,55.0,30.13,WSW,243,6.0,8.0,87,0.00,,,0.00,weatherlink.com 1.10,2013-05-12 16:29:00,
2013-05-12 09:44:00,58.8,55.0,30.13,WSW,249,4.0,10.0,86,0.00,,,0.00,weatherlink.com 1.10,2013-05-12 16:44:00,
2013-05-12 09:59:00,59.1,55.0,30.13,SSW,206,5.0,8.0,86,0.00,,,0.00,weatherlink.com 1.10,2013-05-12 16:59:00,
2013-05-12 10:14:00,60.1,55.0,30.13,SE,146,6.0,10.0,84,0.00,,,0.00,weatherlink.com 1.10,2013-05-12 17:14:00,
2013-05-12 10:29:00,61.5,56.0,30.13,SSW,200,4.0,9.0,82,0.00,,,0.00,weatherlink.com 1.10,2013-05-12 17:29:00,
2013-05-12 10:44:00,61.9,56.0,30.13,SSE,152,5.0,10.0,81,0.00,,,0.00,weatherlink.com 1.10,2013-05-12 17:44:00,
2013-05-12 10:59:00,62.7,56.0,30.13,SW,222,7.0,9.0,80,0.00,,,0.00,weatherlink.com 1.10,2013-05-12 17:59:00,
2013-05-12 11:14:00,64.2,57.0,30.13,SSW,208,2.0,9.0,77,0.00,,,0.00,weatherlink.com 1.10,2013-05-12 18:14:00,
2013-05-12 11:29:00,64.9,57.0,30.13,SW,229,4.0,9.0,76,0.00,,,0.00,weatherlink.com 1.10,2013-05-12 18:29:00,
2013-05-12 11:44:00,64.4,57.0,30.13,SSW,193,10.0,10.0,76,0.00,,,0.00,weatherlink.com 1.10,2013-05-12 18:44:00,
2013-05-12 11:59:00,63.9,56.0,30.13,SSE,148,6.0,9.0,76,0.00,,,0.00,weatherlink.com 1.10,2013-05-12 18:59:00,
2013-05-12 12:14:00,63.8,56.0,30.13,SSW,197,3.0,11.0,77,0.00,,,0.00,weatherlink.com 1.10,2013-05-12 19:14:00,
2013-05-12 12:29:00,63.7,56.0,30.13,SE,134,11.0,12.0,77,0.00,,,0.00,weatherlink.com 1.10,2013-05-12 19:29:00,
2013-05-12 12:44:00,62.9,56.0,30.12,WSW,242,8.0,15.0,79,0.00,,,0.00,weatherlink.com 1.10,2013-05-12 19:44:00,
2013-05-12 12:59:00,63.3,56.0,30.12,South,188,7.0,14.0,78,0.00,,,0.00,weatherlink.com 1.10,2013-05-12 19:59:00,
2013-05-12 13:14:00,63.6,57.0,30.12,SSE,162,6.0,14.0,78,0.00,,,0.00,weatherlink.com 1.10,2013-05-12 20:14:00,
2013-05-12 13:29:00,64.0,57.0,30.11,WSW,257,9.0,15.0,77,0.00,,,0.00,weatherlink.com 1.10,2013-05-12 20:29:00,
2013-05-12 13:44:00,63.4,56.0,30.12,SE,132,9.0,18.0,78,0.00,,,0.00,weatherlink.com 1.10,2013-05-12 20:44:00,
2013-05-12 13:59:00,64.2,57.0,30.11,SE,129,7.0,18.0,77,0.00,,,0.00,weatherlink.com 1.10,2013-05-12 20:59:00,
2013-05-12 14:14:00,63.8,56.0,30.11,SSW,204,8.0,20.0,76,0.00,,,0.00,weatherlink.com 1.10,2013-05-12 21:14:00,
2013-05-12 14:29:00,63.4,56.0,30.10,SSE,158,14.0,15.0,78,0.00,,,0.00,weatherlink.com 1.10,2013-05-12 21:29:00,
2013-05-12 14:44:00,64.9,57.0,30.10,SSW,210,12.0,16.0,75,0.00,,,0.00,weatherlink.com 1.10,2013-05-12 21:44:00,
2013-05-12 14:59:00,64.8,57.0,30.09,SSW,207,11.0,16.0,75,0.00,,,0.00,weatherlink.com 1.10,2013-05-12 21:59:00,
2013-05-12 15:14:00,65.3,57.0,30.09,SSE,165,5.0,15.0,75,0.00,,,0.00,weatherlink.com 1.10,2013-05-12 22:14:00,
2013-05-12 15:29:00,67.4,58.0,30.08,South,181,5.0,12.0,72,0.00,,,0.00,weatherlink.com 1.10,2013-05-12 22:29:00,
2013-05-12 15:44:00,67.6,57.0,30.07,SSE,162,9.0,12.0,70,0.00,,,0.00,weatherlink.com 1.10,2013-05-12 22:44:00,
2013-05-12 16:00:00,67.0,57.0,30.06,SSW,211,4.0,14.0,70,0.00,,,0.00,weatherlink.com 1.10,2013-05-12 23:00:00,
2013-05-12 16:15:00,67.6,57.0,30.06,ESE,119,8.0,14.0,69,0.00,,,0.00,weatherlink.com 1.10,2013-05-12 23:15:00,
2013-05-12 16:30:00,67.1,57.0,30.06,South,172,5.0,17.0,69,0.00,,,0.00,weatherlink.com 1.10,2013-05-12 23:30:00,
2013-05-12 16:45:00,66.3,56.0,30.05,South,186,6.0,17.0,70,0.00,,,0.00,weatherlink.com 1.10,2013-05-12 23:45:00,
2013-05-12 17:00:00,66.3,56.0,30.05,ESE,122,9.0,13.0,70,0.00,,,0.00,weatherlink.com 1.10,2013-05-13 00:00:00,
2013-05-12 17:15:00,65.8,56.0,30.05,SSE,162,9.0,16.0,71,0.00,,,0.00,weatherlink.com 1.10,2013-05-13 00:15:00,
2013-05-12 17:30:00,65.0,56.0,30.05,SSE,152,7.0,15.0,72,0.00,,,0.00,weatherlink.com 1.10,2013-05-13 00:30:00,
2013-05-12 17:45:00,64.5,56.0,30.04,SSE,158,9.0,14.0,73,0.00,,,0.00,weatherlink.com 1.10,2013-05-13 00:45:00,
2013-05-12 18:00:00,64.0,55.0,30.04,SSE,162,13.0,14.0,73,0.00,,,0.00,weatherlink.com 1.10,2013-05-13 01:00:00,
2013-05-12 18:15:00,63.3,55.0,30.03,SE,129,10.0,18.0,74,0.00,,,0.00,weatherlink.com 1.10,2013-05-13 01:15:00,
2013-05-12 18:30:00,63.0,55.0,30.03,SE,145,3.0,13.0,75,0.00,,,0.00,weatherlink.com 1.10,2013-05-13 01:30:00,
2013-05-12 18:45:00,62.6,55.0,30.03,SSE,161,9.0,13.0,76,0.00,,,0.00,weatherlink.com 1.10,2013-05-13 01:45:00,
2013-05-12 19:00:00,62.2,55.0,30.02,East,90,6.0,13.0,77,0.00,,,0.00,weatherlink.com 1.10,2013-05-13 02:00:00,
2013-05-12 19:15:00,61.7,55.0,30.02,SSW,200,10.0,13.0,78,0.00,,,0.00,weatherlink.com 1.10,2013-05-13 02:15:00,
2013-05-12 19:30:00,61.2,55.0,30.02,South,176,11.0,15.0,80,0.00,,,0.00,weatherlink.com 1.10,2013-05-13 02:30:00,
2013-05-12 19:45:00,60.3,54.0,30.02,SE,129,6.0,13.0,81,0.00,,,0.00,weatherlink.com 1.10,2013-05-13 02:45:00,
2013-05-12 20:00:00,59.4,54.0,30.02,South,190,5.0,12.0,83,0.00,,,0.00,weatherlink.com 1.10,2013-05-13 03:00:00,
2013-05-12 20:15:00,58.1,54.0,30.02,South,187,3.0,11.0,85,0.00,,,0.00,weatherlink.com 1.10,2013-05-13 03:15:00,
2013-05-12 20:30:00,57.6,54.0,30.02,SE,131,3.0,12.0,87,0.00,,,0.00,weatherlink.com 1.10,2013-05-13 03:30:00,
2013-05-12 20:45:00,57.1,54.0,30.02,SE,139,3.0,10.0,88,0.00,,,0.00,weatherlink.com 1.10,2013-05-13 03:45:00,
2013-05-12 21:00:00,56.8,53.0,30.02,SSE,149,6.0,9.0,88,0.00,,,0.00,weatherlink.com 1.10,2013-05-13 04:00:00,
2013-05-12 21:15:00,56.5,53.0,30.02,South,174,7.0,9.0,89,0.00,,,0.00,weatherlink.com 1.10,2013-05-13 04:15:00,
2013-05-12 21:30:00,56.3,53.0,30.03,SW,221,2.0,7.0,89,0.00,,,0.00,weatherlink.com 1.10,2013-05-13 04:30:00,
2013-05-12 21:45:00,56.2,53.0,30.03,SE,136,4.0,7.0,89,0.00,,,0.00,weatherlink.com 1.10,2013-05-13 04:45:00,
2013-05-12 22:00:00,56.3,53.0,30.03,SSW,193,3.0,8.0,89,0.00,,,0.00,weatherlink.com 1.10,2013-05-13 05:00:00,
2013-05-12 22:15:00,56.2,53.0,30.03,SSE,147,1.0,7.0,89,0.00,,,0.00,weatherlink.com 1.10,2013-05-13 05:15:00,
2013-05-12 22:30:00,56.3,53.0,30.03,SE,142,7.0,11.0,89,0.00,,,0.00,weatherlink.com 1.10,2013-05-13 05:30:00,
2013-05-12 22:45:00,56.5,53.0,30.04,South,190,2.0,13.0,88,0.00,,,0.00,weatherlink.com 1.10,2013-05-13 05:45:00,
2013-05-12 23:01:00,55.1,52.0,30.03,South,179,4.0,16.0,90,0.00,,,0.00,weatherlink.com 1.10,2013-05-13 06:01:00,
2013-05-12 23:15:00,54.3,52.0,30.03,SE,134,4.0,9.0,91,0.00,,,0.00,weatherlink.com 1.10,2013-05-13 06:15:00,
2013-05-12 23:30:00,54.0,52.0,30.03,South,173,9.0,9.0,92,0.00,,,0.00,weatherlink.com 1.10,2013-05-13 06:30:00,
2013-05-12 23:45:00,53.7,52.0,30.03,South,169,7.0,11.0,93,0.00,,,0.00,weatherlink.com 1.10,2013-05-13 06:45:00,